Tracking 25711 objects as of 22-May-2022
HD Live streaming from Space Station
objects crossing your sky now

STARLETTE

Track STARLETTE now!
10-day predictions
STARLETTE is classified as:


NORAD ID: 7646
Int'l Code: 1975-010A
Perigee: 811.9 km
Apogee: 1,113.8 km
Inclination: 49.8 °
Period: 104.2 minutes
Semi major axis: 7333 km
RCS: 0.168 m2 (medium)
Launch date: February 6, 1975
Source: France (FR)
Launch site: FRENCH GUIANA (FRGUI)
aabbcc
Your satellite tracking list
Your tracking list is empty




NASA's NSSDC Master Catalog

Two Line Element Set (TLE):
1 07646U 75010A   22141.72173804 -.00000133  00000-0  69071-5 0  9994
2 07646  49.8233 215.7126 0205780 189.3126 170.3924 13.82312522388789
Source of the keplerian elements: AFSPC